Theta_e
314 314 314 315 315 316 317 316 316 315 315 314 314 314 314 314 314 314 314 314 314 314 314 314 316 317 318 311 308 320 343 336 323 318 317 316 316 317 314 316 317 314 314 314 315 315 317
313 313 313 313 313 314 315 316 316 316 315 315 314 314 313 313 314 314 314 314 314 314 313 314 316 318 314 302 315 318 323 326 326 320 317 318 318 320 316 315 314 316 316 314 315 315 317
310 311 312 312 312 312 312 312 313 315 316 316 315 315 314 313 314 314 314 314 314 314 313 314 316 317 310 306 317 318 316 315 317 317 317 318 319 317 317 313 317 316 311 313 314 314 314
307 308 308 309 309 311 311 311 311 311 313 315 315 314 314 314 314 314 314 314 314 313 314 315 316 317 307 315 318 315 318 320 322 322 317 321 319 316 317 318 314 311 312 307 313 314 314
308 308 308 307 307 308 308 309 311 311 311 312 314 314 315 314 314 314 314 313 313 313 314 316 318 315 305 318 312 315 316 312 314 318 320 320 319 313 314 310 307 310 304 306 308 315 313
309 309 309 309 309 309 307 307 308 309 311 310 312 312 314 314 314 314 313 312 314 312 318 320 316 310 312 307 312 315 317 314 311 312 314 313 313 309 310 308 300 304 306 307 306 312 313
311 311 311 311 311 311 309 308 308 307 308 310 310 311 312 313 314 313 311 312 309 309 313 306 307 306 308 312 313 312 315 313 312 309 304 310 307 303 307 310 310 309 308 306 310 313 311
310 311 311 311 311 311 311 310 309 309 307 308 310 310 311 312 313 313 312 306 308 308 304 314 312 310 312 312 307 309 317 308 306 303 306 309 304 309 311 310 309 309 307 306 309 312 311
310 310 311 311 311 311 311 311 311 310 309 308 308 309 310 311 312 311 309 309 313 312 302 304 308 309 309 311 307 308 312 310 305 303 305 305 308 311 310 309 308 308 306 306 306 310 312
309 309 310 311 311 311 311 312 312 311 310 309 308 309 310 310 306 310 308 313 312 312 296 300 304 307 310 310 305 312 314 311 307 302 306 307 312 309 308 307 309 305 310 308 307 306 301
308 308 310 310 310 310 311 311 312 312 311 310 309 307 309 309 305 308 309 313 311 309 288 305 307 314 311 306 307 307 314 311 305 304 306 304 307 307 306 308 311 307 311 308 308 305 304
307 308 309 309 310 310 310 310 310 311 311 311 309 307 308 307 308 310 313 311 308 295 287 301 307 305 304 305 306 310 307 312 312 306 308 307 312 311 310 311 311 312 308 308 307 305 297
307 307 308 309 309 310 309 309 310 310 311 311 310 308 307 308 305 311 312 306 292 289 302 300 302 305 304 302 303 305 303 303 302 299 301 305 307 311 313 309 311 308 305 297 296 297 296
306 307 308 308 309 309 309 309 309 310 310 310 310 308 306 307 311 309 307 296 286 294 298 305 304 304 301 304 303 304 302 301 306 305 303 300 298 308 312 310 306 306 305 298 292 294 298
305 307 307 308 309 309 309 309 309 309 309 309 308 306 304 306 309 306 298 288 289 296 301 301 303 301 301 304 303 303 302 301 305 307 302 301 302 310 311 312 310 305 302 308 301 302 298
305 306 307 307 308 309 309 309 309 309 308 308 304 300 299 306 310 304 290 287 292 298 300 302 298 302 299 301 301 302 302 305 304 307 310 308 301 308 309 311 311 308 310 301 302 293 292
305 305 307 307 308 308 309 309 309 309 308 307 301 294 303 306 309 295 284 289 293 299 300 297 298 299 302 302 303 302 302 306 307 306 309 308 307 305 309 306 304 304 303 305 305 302 295
305 306 306 307 308 308 308 309 309 309 306 303 297 291 306 308 291 290 286 292 295 295 299 298 298 298 299 303 303 302 302 305 309 309 304 309 308 302 304 310 311 309 305 306 300 298 302
305 305 306 307 307 308 308 308 308 306 304 302 295 297 308 306 287 289 293 292 294 295 295 295 296 298 301 300 299 304 305 309 309 308 307 310 305 300 302 306 309 305 306 307 307 307 301
305 305 306 307 308 308 308 308 307 306 304 303 294 290 296 298 293 290 291 291 290 297 295 296 296 298 297 297 303 302 304 308 310 309 312 313 308 303 299 302 305 302 304 306 306 301 301
304 305 306 306 307 308 308 308 306 306 305 302 297 292 295 287 290 291 290 291 290 289 295 297 295 295 296 296 300 301 305 307 308 309 311 313 304 305 306 306 306 305 304 304 303 304 301
304 304 306 306 307 308 308 307 307 306 305 300 291 293 296 293 292 290 291 289 289 290 292 292 292 295 297 296 300 299 303 305 305 307 308 313 305 306 302 305 305 303 305 305 305 305 305
304 305 305 306 307 308 308 308 307 306 304 298 300 299 294 288 292 289 288 290 290 292 293 295 295 294 294 297 299 303 305 307 309 306 308 308 305 304 298 303 303 300 304 305 305 306 307
304 305 306 306 307 308 308 307 307 306 304 304 301 301 291 288 289 290 291 291 291 292 292 294 297 294 298 303 304 305 305 306 309 309 313 309 307 304 299 302 293 303 310 309 307 308 309
304 305 305 306 307 308 308 307 306 305 305 303 305 299 295 290 291 291 291 291 293 293 293 295 298 301 302 300 295 296 298 301 304 307 308 312 310 301 299 299 301 303 306 306 305 305 311
304 305 306 306 306 307 308 307 307 306 306 306 306 304 298 291 292 294 292 293 289 291 294 296 301 305 302 295 293 288 290 295 297 300 309 309 312 304 301 296 293 303 309 312 311 301 312
304 305 305 306 306 306 308 307 307 306 306 306 306 306 300 292 297 297 292 289 294 296 294 297 298 298 303 293 288 290 292 299 293 295 298 301 304 300 298 299 301 309 311 313 300 304 314
304 305 305 306 306 307 307 308 307 306 305 306 304 309 301 295 296 297 297 292 295 294 292 298 296 297 297 292 289 289 292 297 296 299 299 298 299 299 300 297 295 312 311 305 313 316 317
304 305 305 305 306 306 307 307 307 306 305 306 302 310 309 297 296 303 303 302 300 297 294 298 297 295 296 294 295 294 290 293 294 291 304 298 303 301 303 303 314 314 314 319 319 318 318
Wind_Speed
13 13 13 14 13 11 10 10 11 11 10 10 11 12 14 15 16 17 17 18 18 18 17 17 18 16 13 12 17 7 10 11 10 18 26 26 26 25 26 25 22 18 17 21 22 17 15
16 14 14 14 13 11 12 12 11 12 11 11 10 11 12 13 14 15 15 15 16 16 18 18 17 15 8 21 12 18 15 14 14 18 23 24 22 23 23 24 20 22 24 19 17 17 15
17 17 17 17 15 14 13 14 14 13 12 13 13 12 12 12 13 14 15 15 15 16 18 17 15 10 15 25 12 8 11 17 18 17 18 22 24 22 21 24 20 20 19 20 18 18 16
15 16 16 17 17 17 17 16 16 16 15 14 14 13 13 13 12 14 16 17 19 20 21 19 14 13 17 16 22 27 19 11 9 14 23 18 22 28 24 17 21 20 23 20 21 23 15
15 15 15 14 15 16 16 16 17 16 16 15 14 13 14 14 15 14 16 19 23 22 16 10 10 14 21 7 28 25 23 24 21 15 17 16 16 25 23 20 20 20 18 23 20 12 14
17 16 16 16 15 14 15 16 16 17 16 15 15 14 15 16 16 16 16 23 18 8 11 11 13 7 19 19 18 18 23 24 18 20 17 18 15 20 20 19 21 22 24 20 17 14 13
18 18 19 19 18 16 16 16 16 16 17 17 16 15 12 14 15 14 15 14 7 10 20 16 15 18 5 11 7 10 16 19 21 21 24 24 19 25 31 28 24 22 20 17 13 6 14
20 19 19 18 19 19 19 18 17 17 16 16 16 16 16 12 14 13 13 13 7 7 11 29 28 26 24 5 8 18 16 20 24 25 26 22 27 27 27 27 27 24 20 18 15 14 9
22 22 21 21 20 18 19 18 18 17 17 16 14 14 15 13 14 12 17 20 6 7 11 21 28 28 27 24 21 18 26 24 25 28 30 29 25 26 26 26 25 23 20 16 17 15 10
21 22 22 21 20 20 21 20 19 18 18 16 14 13 14 13 8 13 15 13 9 5 10 19 20 26 29 25 30 25 25 26 22 30 28 27 27 27 27 26 23 21 18 18 15 15 13
23 23 22 21 20 20 20 21 20 19 17 16 15 14 13 9 14 11 10 4 7 6 11 8 29 10 21 33 9 31 28 26 29 22 27 29 26 27 25 27 23 17 17 15 12 15 17
25 26 25 24 24 24 22 21 21 20 17 17 16 14 11 11 13 15 13 4 8 12 17 10 14 18 22 33 34 11 34 26 22 26 27 30 28 24 23 19 18 20 14 13 9 11 16
25 25 25 25 25 24 22 22 22 20 18 15 17 15 12 11 10 9 13 8 11 18 15 15 19 19 26 24 33 26 33 31 28 28 29 28 31 26 19 22 22 14 13 10 13 14 14
24 24 24 25 26 26 25 24 21 19 18 16 15 12 13 12 13 8 8 13 18 22 33 6 22 21 29 24 33 30 30 29 32 29 17 24 29 29 21 25 22 21 19 12 14 13 13
25 24 24 25 25 25 24 23 22 18 16 13 11 7 12 11 13 6 7 19 24 23 22 33 15 20 27 29 19 32 31 32 33 32 27 25 26 25 25 24 25 17 21 19 19 17 12
25 25 26 26 26 25 24 22 21 16 12 10 3 5 11 13 14 8 6 24 29 29 28 23 34 21 23 29 25 36 31 33 34 34 28 18 18 24 28 19 27 22 19 19 13 16 15
24 26 26 26 26 25 23 21 18 13 10 6 2 3 7 14 7 6 7 21 30 30 31 20 22 20 26 24 30 27 31 19 35 35 30 28 17 22 25 25 26 21 21 14 14 12 11
24 24 26 27 27 25 22 19 17 11 6 6 4 4 6 11 6 3 13 26 27 33 30 15 21 24 27 26 26 30 33 32 29 28 36 30 11 17 27 25 24 25 25 22 11 17 12
23 25 25 27 26 25 19 16 13 13 9 3 3 5 2 8 6 13 19 28 27 29 28 26 18 19 25 25 22 29 28 29 19 31 34 26 14 18 23 21 23 25 23 20 18 14 14
23 24 25 26 25 24 17 15 8 13 6 2 1 3 3 5 2 7 15 22 24 19 28 21 27 17 23 25 24 19 29 25 19 23 24 22 19 24 19 23 20 24 25 25 22 17 16
24 25 25 26 25 23 20 14 4 10 7 5 3 4 5 4 10 15 15 15 20 24 20 23 22 25 23 22 21 24 22 26 19 18 20 24 24 25 24 19 24 21 22 27 27 22 22
24 25 25 25 25 25 19 12 8 12 10 9 2 4 3 12 11 6 10 13 18 19 9 19 22 22 22 19 19 20 18 17 23 21 23 20 22 22 25 24 23 26 25 25 26 24 23
23 24 25 25 25 25 17 12 10 7 16 4 1 2 4 4 7 7 7 7 12 15 19 18 22 22 23 22 20 29 21 22 21 23 23 23 18 22 20 22 24 23 27 26 23 22 22
23 24 25 25 26 25 14 10 11 7 18 1 3 3 2 7 8 10 12 12 13 13 17 17 27 24 20 19 23 23 22 18 20 22 22 22 22 15 17 19 28 17 20 22 24 22 21
24 24 25 25 25 23 15 11 5 4 14 4 1 3 3 7 10 11 10 10 12 9 18 21 22 10 22 15 14 16 13 16 17 18 24 22 18 14 14 18 14 24 15 22 19 20 21
25 25 24 24 24 24 17 14 9 5 12 7 6 4 2 4 5 6 10 14 11 13 13 15 16 9 10 5 2 6 15 14 21 19 14 18 17 14 16 18 24 17 21 13 19 20 20
22 24 24 23 23 25 23 15 9 8 7 6 3 5 5 5 8 6 6 5 9 9 8 9 16 11 14 8 4 8 14 19 19 25 22 16 17 20 15 14 15 17 16 14 20 12 20
21 22 22 23 23 24 23 20 9 9 3 6 3 5 4 4 12 12 4 5 8 4 6 8 11 13 10 13 9 4 9 13 16 22 26 19 19 15 18 16 18 19 14 22 10 2 12
20 21 21 22 22 22 21 18 12 5 1 4 4 3 5 5 8 16 15 11 13 10 5 7 5 4 6 8 9 7 8 4 9 9 16 22 20 14 17 12 5 15 14 14 11 9 7
Wind_Direction
350 350 348 346 345 332 316 294 283 273 275 291 299 311 319 320 321 323 326 326 321 317 317 317 312 314 303 237 246 234 147 114 187 208 226 225 219 222 228 238 246 234 254 253 260 254 258
356 350 346 340 339 336 334 321 309 298 275 271 266 275 289 299 305 311 312 309 305 303 307 309 304 309 243 259 260 251 196 177 200 204 221 237 229 224 238 243 241 233 237 253 258 253 257
352 356 357 352 341 332 328 324 322 323 307 284 278 270 267 279 294 299 296 295 293 293 295 283 279 275 264 245 291 231 221 235 231 231 232 228 240 237 235 249 247 256 254 255 253 253 250
349 346 342 337 336 342 343 330 325 320 318 316 289 277 278 277 278 289 294 297 291 290 288 278 264 249 258 256 233 251 253 223 235 254 223 236 225 247 238 247 255 246 242 254 249 224 224
348 344 341 337 333 328 326 329 330 320 318 316 313 304 284 284 287 290 293 294 290 289 276 248 218 226 259 220 225 234 229 235 235 242 222 232 229 228 237 242 240 225 245 242 247 199 221
341 339 340 338 333 326 324 321 316 317 318 304 302 305 295 282 286 290 296 284 281 278 220 207 260 229 243 241 232 231 225 230 218 211 217 216 222 217 225 223 229 227 232 231 248 212 199
338 332 329 326 323 322 318 315 312 310 308 315 300 296 297 292 285 285 297 291 210 196 216 212 193 218 250 210 195 213 218 200 208 221 209 205 214 209 213 221 228 248 264 274 283 286 247
344 340 335 330 324 318 312 309 306 304 303 299 310 304 300 303 292 281 279 258 337 345 273 227 253 233 250 244 246 217 178 197 200 208 201 200 222 216 218 222 231 243 256 262 262 272 271
344 340 335 332 325 317 313 303 295 295 295 297 294 304 300 300 301 262 252 255 337 294 257 246 229 231 224 231 233 230 199 201 201 211 203 217 211 221 219 224 225 229 243 250 262 276 252
342 339 336 331 325 320 315 313 305 292 285 286 289 290 296 304 267 250 247 241 237 267 267 249 207 232 218 217 232 224 202 207 223 214 213 220 226 210 223 223 225 234 227 248 268 274 264
340 338 334 328 323 320 317 312 306 298 282 271 276 282 288 270 316 283 50 285 277 234 260 233 199 163 197 198 160 201 219 205 220 205 212 219 219 218 211 224 221 235 243 250 230 256 271
340 338 334 329 324 319 316 309 304 298 281 263 259 267 276 245 245 262 293 282 245 226 230 227 140 186 190 200 216 198 197 208 220 228 220 231 214 224 226 207 218 232 226 253 267 257 256
337 334 329 326 321 318 313 311 306 295 285 278 250 252 252 266 258 250 296 233 212 228 210 224 180 187 198 190 200 218 187 196 204 208 216 212 226 214 196 209 213 210 214 220 225 230 246
333 329 327 325 322 319 314 312 308 300 289 268 254 236 231 246 252 261 274 217 233 220 227 223 179 195 206 187 201 212 186 200 207 209 200 207 208 207 187 213 201 197 213 228 217 235 253
332 329 328 327 322 321 316 311 305 299 287 271 260 220 246 221 238 187 243 219 221 235 212 249 195 203 208 195 191 205 197 205 200 204 225 203 215 203 199 204 223 185 216 228 260 285 288
332 330 330 327 324 322 319 316 315 298 285 278 218 217 239 222 211 191 239 237 237 256 278 272 238 231 211 207 206 197 194 208 209 210 217 199 211 213 190 202 221 217 197 218 228 250 262
331 330 329 327 326 323 322 320 319 307 289 283 196 198 218 191 141 200 226 232 237 260 271 320 313 274 228 215 201 199 205 205 207 199 216 232 214 193 187 195 205 205 229 200 249 224 236
332 331 329 328 326 324 321 322 319 312 121 118 167 237 142 117 187 183 227 228 246 256 253 300 301 291 279 244 215 219 208 209 194 205 205 214 205 227 200 194 212 213 210 215 214 222 252
333 332 331 329 330 331 325 330 327 139 176 183 252 252 358 176 221 227 239 240 247 263 261 266 272 300 304 296 280 210 232 218 187 203 197 201 198 219 191 201 200 223 212 213 226 245 232
336 334 333 332 333 335 334 334 318 179 220 132 260 268 172 204 209 275 279 253 235 262 256 270 278 282 285 281 269 266 208 217 204 202 194 204 205 214 204 200 191 206 221 204 216 215 233
339 337 335 334 332 333 328 329 270 193 231 257 262 254 290 239 232 240 252 284 284 236 238 268 248 262 271 275 261 251 216 216 192 202 190 195 214 208 227 212 192 205 211 216 212 217 223
340 339 336 334 332 334 327 323 322 209 205 244 268 275 298 284 254 278 245 250 263 283 235 248 240 257 280 288 292 288 257 229 187 204 190 194 212 210 216 226 203 202 209 219 222 217 223
341 340 337 336 336 338 335 319 311 225 199 207 279 139 278 260 280 248 244 262 305 294 261 244 271 258 251 268 334 308 315 303 284 206 184 187 200 208 216 210 224 213 208 212 220 224 221
343 343 341 339 338 339 342 344 339 287 195 231 226 196 234 270 229 240 269 272 273 280 291 259 242 250 258 278 291 284 270 268 269 209 191 193 207 197 211 208 214 221 211 219 218 219 216
346 345 343 342 343 352 357 346 358 108 193 267 297 243 278 282 305 276 271 267 268 268 266 253 240 285 319 236 281 273 244 234 227 229 189 194 197 205 212 207 216 216 223 217 216 221 212
346 346 345 345 347 349 342 343 343 240 209 230 255 225 297 285 288 316 302 297 289 266 248 240 236 258 323 216 288 257 227 209 195 198 197 209 204 226 206 214 211 209 197 225 212 225 209
345 346 345 344 345 348 354 350 0 341 236 223 282 233 261 288 297 316 310 313 300 302 285 265 218 199 245 184 188 273 244 226 207 197 186 201 210 211 212 216 226 206 176 182 215 226 210
343 343 343 343 345 348 346 344 346 346 236 228 271 239 250 271 283 277 197 220 286 254 302 335 178 213 227 215 180 199 277 237 259 209 191 199 205 206 212 200 221 196 197 182 217 266 177
340 340 341 341 345 346 348 357 2 6 289 257 295 229 235 243 283 295 281 197 236 240 269 317 308 318 273 240 187 152 235 310 352 286 219 208 213 211 215 204 181 211 199 167 188 170 153